Regional Weather Roundup
Issued by NWS

Home | Current Version | Previous Version | Graphics & Text | Print | Product List | Glossary On
Versions: 1 2 3 4 5 6 7 8 9 10 11 12 13 14 15 16 17 18 19 20 21 22 23 24 25 26 27 28 29 30 31 32 33 34 35 36 37 38 39 40 41 42 43 44 45 46 47 48 49 50
000
ASUS45 KTFX 270119
RWRMT
MONTANA HOURLY WEATHER ROUNDUP
NATIONAL WEATHER SERVICE GREAT FALLS MT
719 PM MDT THU MAR 26 2015

NOTE: "FAIR" INDICATES FEW OR NO CLOUDS BELOW 12000 FEET WITH NO
SIGNIFICANT WEATHER AND/OR OBSTRUCTIONS TO VISIBILITY.

* THESE STATIONS ARE NOT UNDER NWS QUALITY CONTROL. THEY DO NOT
   REPORT WEATHER SUCH AS PRECIPITATION OR FOG.

MTZ001>007-043-270200-
WEST OF THE DIVIDE
CITY           SKY/WX    TMP DP  RH WIND       PRES   REMARKS
KALISPELL      CLOUDY    46  45  96 CALM      30.25F
MISSOULA       MOCLDY    55  39  55 N3        30.29S
BUTTE          MOCLDY    54  34  47 NW14      30.28R
MULLAN PASS    PTCLDY    43  37  79 SW6       30.31S
* ESSEX        N/A       47  40  77 N/A        N/A
* EUREKA APT   MOCLDY    54  43  67 SE12       N/A
* HAMILTON APT PTCLDY    59  36  42 NW2       30.29F
* LIBBY APT    PTCLDY    59  37  44 SE7       30.22F
* LINCOLN      N/A       50  37  61 W5G15      N/A
* LOOKOUT PASS N/A       47  41  80 W1G6       N/A
* POLSON       N/A       54  43  67 S1         N/A
* SEELEY LAKE  N/A       49  41  74 N3G8       N/A
* THOMP F APT  PTCLDY    47  26  44 NW1        N/A
* YAAK HILL    N/A       61  34  36 S2         N/A
$$

MTZ008-052>055-270200-
SOUTHWEST MONTANA
CITY           SKY/WX    TMP DP  RH WIND       PRES   REMARKS
BOZEMAN        CLOUDY    57  36  46 W12       30.22R
DILLON         CLOUDY    55  34  45 W10       30.27R
* W YELLOWSTON CLOUDY    44  31  60 S5G12      N/A
* BOULDER HILL N/A       50  29  44 NE2G19     N/A
* HOMESTAKE PS N/A       50  33  52 W12G22     N/A
* MONIDA PASS  N/A       47  27  46 SE10G16    N/A
* RAYNOLDS PAS N/A       40  21  47 SE13       N/A   WCI  32
* WHITEHALL    N/A       59  34  39 W10G19     N/A
* WISE RIVER   N/A       54  34  47 W15G27     N/A
$$

MTZ009>010-012-014-046-048-049-054-270200-
EAST SLOPES AND CENTRAL MONTANA
CITY           SKY/WX    TMP DP  RH WIND       PRES   REMARKS
CUT BANK       CLOUDY    57  37  47 W24G29    30.06F
GREAT FALLS    MOCLDY    59  36  42 W23G32    30.09R
HELENA         MOCLDY    57  37  47 W10       30.21S
* CONRAD       CLOUDY    61  37  41 W14G25     N/A
* DEARBORN     N/A       59  37  44 S12        N/A
* EAST GLACIER N/A       49  36  61 W27G34     N/A
* MONARCH      N/A       53  27  37 W24G31     N/A
* PENDROY      N/A       58  32  37 NW17G25    N/A
* ROGERS PASS  N/A       45  35  68 SE14G22    N/A
* WHITE SULPH  N/A       53  33  47 W6G17      N/A
$$

MTZ011-013-016-021-035-040-045-047-050-051-270200-
NORTH CENTRAL MONTANA
CITY           SKY/WX    TMP DP  RH WIND       PRES   REMARKS
HAVRE          CLOUDY    63  36  37 NW12      30.00R
LEWISTOWN      CLOUDY    61  36  39 NW10G20   30.07R
* N BAR RANCH  MOCLDY    57  36  46 NW24G33   30.05F
* CHINOOK      CLOUDY    61  37  41 W5        29.99R
* FORT BENTON  CLOUDY    63  34  34 W15G21    30.06R
* CHESTER      N/A       61  33  35 NW18G27    N/A
* DENTON       N/A       62  32  32 NW16G25    N/A
* GEYSER       N/A       59  30  33 W24G32     N/A
* JUDITH GAP   N/A       58  31  36 NW17G22    N/A
* LOMA         N/A       64  36  35 W19G26     N/A
$$

MTZ017>020-022>027-061-062-270200-
NORTHEAST MONTANA
CITY           SKY/WX    TMP DP  RH WIND       PRES   REMARKS
GLASGOW        CLOUDY    46  34  63 E16       30.05S
GLENDIVE       CLOUDY    45  32  60 E9        30.11S
JORDAN         CLOUDY    55  32  42 E10       30.03S
SIDNEY         CLOUDY    39  32  76 E7        30.14F WCI  34
WOLF POINT     CLOUDY    45  36  71 E10       30.09F
* BEAVER HILL  N/A       43  30  60 E13        N/A
* CIRCLE       N/A       51  32  48 E3         N/A
* LINDSAY DVD  N/A       43  32  65 E12        N/A
* NAVAJO       N/A       36  31  82 SE6        N/A   WCI  31
* PLENTYWOOD A PTCLDY    41  30  65 SE6       30.12F
* POPLAR APT   MOCLDY    43  36  76 E10       30.11F
* SACO         N/A       51  32  48 E13        N/A
$$

MTZ028>042-056>058-270200-
SOUTHCENTRAL AND SOUTHEAST MONTANA
CITY           SKY/WX    TMP DP  RH WIND       PRES   REMARKS
BAKER          CLOUDY    43  32  65 SE13      30.12S
BILLINGS       CLOUDY    61  36  39 NW14G22   30.07S
LIVINGSTON     CLOUDY    61  34  36 W20G28    30.18R
MILES CITY     CLOUDY    54  30  40 NE10      30.06S
* BIG TIMBER A MOCLDY    57  34  42 W26G38    30.12R
* FORSYTH APT  CLOUDY    55  37  51 NW3       30.07R
* ALZADA       N/A       47  30  52 NW3        N/A
* HYSHAM       N/A       56  30  37 N2         N/A
* LAME DEER    N/A       50  33  52 N6         N/A
* REED POINT   N/A       61  33  35 W17G29     N/A
* ROSCOE HILL  N/A       57  18  22 W8G17      N/A
$$

REGIONAL REPORTS...DAKOTAS
CITY           SKY/WX    TMP DP  RH WIND       PRES   REMARKS
WILLISTON      CLOUDY    41  27  58 E9        30.15S
DICKINSON      CLOUDY    34  27  76 E6        30.15S WCI  29
BEACH          CLOUDY    37  32  82 E9        30.14R WCI  30
CROSBY         CLEAR     37  28  70 SE9       30.17F WCI  30
TIOGA          CLEAR     34  27  76 SE8       30.20S WCI  27
WATFORD CITY   FAIR      39  27  62 SE8       30.15R WCI  33
BISMARCK       MOCLDY    34  19  54 E6        30.23S WCI  29
GRAND FORKS    MOCLDY    27  16  63 N10       30.30R WCI  18
FARGO          PTCLDY    28   9  45 N16       30.28R WCI  16
BUFFALO SD     CLOUDY    41  30  65 E13       30.07S
RAPID CITY     CLOUDY    43  27  53 E9        30.13R
$$

REGIONAL REPORTS...WYOMING/IDAHO/WASHINGTON
CITY           SKY/WX    TMP DP  RH WIND       PRES   REMARKS
GILLETTE       CLOUDY    50  36  59 N7        30.09R
SHERIDAN       CLOUDY    54  36  51 N12       30.09R
CODY           MOCLDY    57  28  33 NW10G18   30.15S
YELLOWSTONE LA MOCLDY    39  28  65 W5        30.37R WCI  35
SALMON         PTCLDY   N/A N/A N/A N5        30.27F
MULLAN PASS    PTCLDY    43  37  79 SW6       30.31S
SAND POINT     MOCLDY    54  46  74 CALM      30.25F
SPOKANE        MOCLDY    61  45  56 S5        30.23F
$$

REGIONAL REPORTS...ALBERTA
CITY           SKY/WX    TMP DP  RH WIND       PRES   REMARKS
CALGARY        MOCLDY    59  32  36 W17G24    29.97R
LETHBRIDGE     MOCLDY    59  37  44 W29G37    30.02R
MEDICINE HAT   CLOUDY    61  32  34 N2        29.96S
EDMONTON       MOCLDY    41  34  76 S8        29.92F
WATERTON GATE  N/A       52  37  57 SW23G36    N/A
CARDSTON       N/A       54  39  57 W18G28     N/A
MILK RIVER     N/A       55  37  51 W23G29     N/A
$$

REGIONAL REPORTS...SASKATCHEWAN
CITY           SKY/WX    TMP DP  RH WIND       PRES   REMARKS
SWIFT CURRENT  CLOUDY    46  32  58 SE7       29.98F
MOOSE JAW      CLOUDY    39  36  89 SE10      30.09F WCI  32
REGINA         MOCLDY    36  30  79 SE15      30.13F WCI  27
VAL MARIE      N/A       48  32  54 SE9        N/A
ASSINIBOIA     N/A       39  34  82 SE10       N/A   WCI  32
CORONACH       N/A       36  32  85 SE7        N/A   WCI  30

$$




USA.gov is the U.S. government's official web portal to all federal, state and local government web resources and services.